Year,Month,Day,Hour,Minute,Value (Times are PST for temperature in C)
2015,06,20,07,53,14.60
2015,06,20,07,54,14.60
2015,06,20,07,55,14.60
2015,06,20,07,56,14.60
2015,06,20,07,57,14.70
2015,06,20,07,58,14.70
2015,06,20,07,59,14.70
2015,06,20,08,00,14.70
2015,06,20,08,01,14.70
2015,06,20,08,02,14.70
2015,06,20,08,03,14.80
2015,06,20,08,04,14.80
2015,06,20,08,05,14.70
2015,06,20,08,06,14.70
2015,06,20,08,07,14.70
2015,06,20,08,08,14.80
2015,06,20,08,09,14.80
2015,06,20,08,10,14.80
2015,06,20,08,11,14.90
2015,06,20,08,12,14.90
2015,06,20,08,13,14.90
2015,06,20,08,14,15.00
2015,06,20,08,15,15.00
2015,06,20,08,16,15.00
2015,06,20,08,17,15.00
2015,06,20,08,18,15.00
2015,06,20,08,19,15.10
2015,06,20,08,20,15.10
2015,06,20,08,21,15.10
2015,06,20,08,22,15.20
2015,06,20,08,23,15.20
2015,06,20,08,24,15.20
2015,06,20,08,25,15.30
2015,06,20,08,26,15.30
2015,06,20,08,27,15.30
2015,06,20,08,28,15.30
2015,06,20,08,29,15.40
2015,06,20,08,30,15.50
2015,06,20,08,31,15.50
2015,06,20,08,32,15.60
2015,06,20,08,33,15.70
2015,06,20,08,34,15.80
2015,06,20,08,35,15.80
2015,06,20,08,36,15.80
2015,06,20,08,37,15.80
2015,06,20,08,38,15.80
2015,06,20,08,39,15.80
2015,06,20,08,40,15.80
2015,06,20,08,41,15.80
2015,06,20,08,42,15.80
2015,06,20,08,43,15.80
2015,06,20,08,44,16.00
2015,06,20,08,45,16.10
2015,06,20,08,46,16.10
2015,06,20,08,47,16.20
2015,06,20,08,48,16.20
2015,06,20,08,49,16.30
2015,06,20,08,50,16.40
2015,06,20,08,51,16.50
2015,06,20,08,52,16.60
2015,06,20,08,53,16.70
2015,06,20,08,54,16.70
2015,06,20,08,55,16.80
2015,06,20,08,56,16.90
2015,06,20,08,57,16.90
2015,06,20,08,58,16.90
2015,06,20,08,59,16.90
2015,06,20,09,00,16.90
2015,06,20,09,01,16.90
2015,06,20,09,02,17.00
2015,06,20,09,03,17.10
2015,06,20,09,04,17.10
2015,06,20,09,05,17.10
2015,06,20,09,06,17.10
2015,06,20,09,07,17.10
2015,06,20,09,08,17.10
2015,06,20,09,09,17.00
2015,06,20,09,10,17.00
2015,06,20,09,11,16.90
2015,06,20,09,12,16.90
2015,06,20,09,13,16.90
2015,06,20,09,14,17.00
2015,06,20,09,15,16.90
2015,06,20,09,16,16.90
2015,06,20,09,17,16.80
2015,06,20,09,18,16.80
2015,06,20,09,19,16.80
2015,06,20,09,20,16.80
2015,06,20,09,21,16.80
2015,06,20,09,22,16.90
2015,06,20,09,23,16.90
2015,06,20,09,24,16.90
2015,06,20,09,25,16.90
2015,06,20,09,26,17.00
2015,06,20,09,27,17.00
2015,06,20,09,28,16.90
2015,06,20,09,29,16.80
2015,06,20,09,30,16.80
2015,06,20,09,31,16.80
2015,06,20,09,32,16.80
2015,06,20,09,33,16.70
2015,06,20,09,34,16.70
2015,06,20,09,35,16.70
2015,06,20,09,36,16.80
2015,06,20,09,37,16.90
2015,06,20,09,38,16.90
2015,06,20,09,39,17.00
2015,06,20,09,40,17.10
2015,06,20,09,41,17.20
2015,06,20,09,42,17.30
2015,06,20,09,43,17.40
2015,06,20,09,44,17.40
2015,06,20,09,45,17.50
2015,06,20,09,46,17.50
2015,06,20,09,47,17.60
2015,06,20,09,48,17.70
2015,06,20,09,49,17.80
2015,06,20,09,50,17.90
2015,06,20,09,51,17.90
2015,06,20,09,52,17.90
2015,06,20,09,53,17.80
2015,06,20,09,54,17.80
2015,06,20,09,55,17.70
2015,06,20,09,56,17.70
2015,06,20,09,57,17.40
2015,06,20,09,58,17.30
2015,06,20,09,59,17.20
2015,06,20,10,00,17.20
2015,06,20,10,01,17.20
2015,06,20,10,02,17.20
2015,06,20,10,03,17.30
2015,06,20,10,04,17.40
2015,06,20,10,05,17.50
2015,06,20,10,06,17.60
2015,06,20,10,07,17.70
2015,06,20,10,08,17.80
2015,06,20,10,09,17.90
2015,06,20,10,10,17.80
2015,06,20,10,11,17.70
2015,06,20,10,12,17.50
2015,06,20,10,13,17.50
2015,06,20,10,14,17.50
2015,06,20,10,15,17.50
2015,06,20,10,16,17.50
2015,06,20,10,17,17.50
2015,06,20,10,18,17.50
2015,06,20,10,19,17.60
2015,06,20,10,20,17.60
2015,06,20,10,21,17.60
2015,06,20,10,22,17.60
2015,06,20,10,23,17.60
2015,06,20,10,24,17.50
2015,06,20,10,25,17.50
2015,06,20,10,26,17.50
2015,06,20,10,27,17.50
2015,06,20,10,28,17.50
2015,06,20,10,29,17.60
2015,06,20,10,30,17.60
2015,06,20,10,31,17.70
2015,06,20,10,32,17.80
2015,06,20,10,33,17.90
2015,06,20,10,34,17.90
2015,06,20,10,35,17.90
2015,06,20,10,36,17.90
2015,06,20,10,37,18.00
2015,06,20,10,38,18.10
2015,06,20,10,39,18.10
2015,06,20,10,40,18.20
2015,06,20,10,41,18.20
2015,06,20,10,42,18.20
2015,06,20,10,43,18.20
2015,06,20,10,44,18.10
2015,06,20,10,45,18.10
2015,06,20,10,46,17.90
2015,06,20,10,47,17.90
2015,06,20,10,48,17.80
2015,06,20,10,49,17.70
2015,06,20,10,50,17.70
2015,06,20,10,51,17.70
2015,06,20,10,52,17.70
2015,06,20,10,53,17.70
2015,06,20,10,54,17.60
2015,06,20,10,55,17.60
2015,06,20,10,56,17.70
2015,06,20,10,57,17.80
2015,06,20,10,58,17.90
2015,06,20,10,59,18.00
2015,06,20,11,00,18.00
2015,06,20,11,01,17.90
2015,06,20,11,02,17.90
2015,06,20,11,03,18.00
2015,06,20,11,04,18.10
2015,06,20,11,05,18.10
2015,06,20,11,06,18.20
2015,06,20,11,07,18.20
2015,06,20,11,08,18.20
2015,06,20,11,09,18.00
2015,06,20,11,10,17.80
2015,06,20,11,11,17.70
2015,06,20,11,12,17.70
2015,06,20,11,13,17.80
2015,06,20,11,14,17.80
2015,06,20,11,15,17.70
2015,06,20,11,16,17.60
2015,06,20,11,17,17.50
2015,06,20,11,18,17.50
2015,06,20,11,19,17.50
2015,06,20,11,20,17.60
2015,06,20,11,21,17.60
2015,06,20,11,22,17.60
2015,06,20,11,23,17.50
2015,06,20,11,24,17.50
2015,06,20,11,25,17.70
2015,06,20,11,26,17.80
2015,06,20,11,27,17.90
2015,06,20,11,28,17.90
2015,06,20,11,29,17.90
2015,06,20,11,30,18.00
2015,06,20,11,31,18.10
2015,06,20,11,32,18.30
2015,06,20,11,33,18.40
2015,06,20,11,34,18.40
2015,06,20,11,35,18.40
2015,06,20,11,36,18.40
2015,06,20,11,37,18.40
2015,06,20,11,38,18.30
2015,06,20,11,39,18.30
2015,06,20,11,40,18.20
2015,06,20,11,41,18.10
2015,06,20,11,42,18.10
2015,06,20,11,43,18.20
2015,06,20,11,44,18.20
2015,06,20,11,45,18.20
2015,06,20,11,46,18.20
2015,06,20,11,47,18.20
2015,06,20,11,48,18.30
2015,06,20,11,49,18.40
2015,06,20,11,50,18.40
2015,06,20,11,51,18.40
2015,06,20,11,52,18.20
2015,06,20,11,53,17.90
2015,06,20,11,54,17.80
2015,06,20,11,55,17.80
2015,06,20,11,56,17.90
2015,06,20,11,57,17.90
2015,06,20,11,58,17.90
2015,06,20,11,59,18.00
2015,06,20,12,00,18.10
2015,06,20,12,01,18.10
2015,06,20,12,02,18.00
2015,06,20,12,03,17.90
2015,06,20,12,04,17.90
2015,06,20,12,05,18.00
2015,06,20,12,06,18.10
2015,06,20,12,07,18.20
2015,06,20,12,08,18.20
2015,06,20,12,09,18.20
2015,06,20,12,10,18.20
2015,06,20,12,11,18.20
2015,06,20,12,12,18.20
2015,06,20,12,13,18.20
2015,06,20,12,14,18.20
2015,06,20,12,15,18.30
2015,06,20,12,16,18.40
2015,06,20,12,17,18.50
2015,06,20,12,18,18.60
2015,06,20,12,19,18.70
2015,06,20,12,20,18.60
2015,06,20,12,21,18.50
2015,06,20,12,22,18.20
2015,06,20,12,23,18.20
2015,06,20,12,24,18.00
2015,06,20,12,25,17.90
2015,06,20,12,26,17.90
2015,06,20,12,27,18.00
2015,06,20,12,28,18.20
2015,06,20,12,29,18.20
2015,06,20,12,30,18.30
2015,06,20,12,31,18.40
2015,06,20,12,32,18.40
2015,06,20,12,33,18.30
2015,06,20,12,34,18.40
2015,06,20,12,35,18.40
2015,06,20,12,36,18.50
2015,06,20,12,37,18.60
2015,06,20,12,38,18.70
2015,06,20,12,39,18.70
2015,06,20,12,40,18.90
2015,06,20,12,41,18.90
2015,06,20,12,42,18.90
2015,06,20,12,43,19.00
2015,06,20,12,44,19.10
2015,06,20,12,45,19.10
2015,06,20,12,46,19.20
2015,06,20,12,47,19.20
2015,06,20,12,48,19.30
2015,06,20,12,49,19.30
2015,06,20,12,50,19.30
2015,06,20,12,51,19.40
2015,06,20,12,52,19.50
2015,06,20,12,53,19.50
2015,06,20,12,54,19.60
2015,06,20,12,55,19.60
2015,06,20,12,56,19.60
2015,06,20,12,57,19.70
2015,06,20,12,58,19.70
2015,06,20,12,59,19.60
2015,06,20,13,00,19.60
2015,06,20,13,01,19.50
2015,06,20,13,02,19.60
2015,06,20,13,03,19.60
2015,06,20,13,04,19.70
2015,06,20,13,05,19.70
2015,06,20,13,06,19.70
2015,06,20,13,07,19.70
2015,06,20,13,08,19.60
2015,06,20,13,09,19.50
2015,06,20,13,10,19.40
2015,06,20,13,11,19.40
2015,06,20,13,12,19.50
2015,06,20,13,13,19.50
2015,06,20,13,14,19.60
2015,06,20,13,15,19.60
2015,06,20,13,16,19.50
2015,06,20,13,17,19.30
2015,06,20,13,18,19.10
2015,06,20,13,19,19.10
2015,06,20,13,20,19.00
2015,06,20,13,21,18.90
2015,06,20,13,22,19.00
2015,06,20,13,23,19.10
2015,06,20,13,24,19.10
2015,06,20,13,25,19.10
2015,06,20,13,26,19.10
2015,06,20,13,27,19.10
2015,06,20,13,28,19.20
2015,06,20,13,29,19.20
2015,06,20,13,30,19.10
2015,06,20,13,31,19.10
2015,06,20,13,32,19.20
2015,06,20,13,33,19.20
2015,06,20,13,34,19.20
2015,06,20,13,35,19.20
2015,06,20,13,36,19.30
2015,06,20,13,37,19.30
2015,06,20,13,38,19.20
2015,06,20,13,39,19.20
2015,06,20,13,40,19.20
2015,06,20,13,41,19.30
2015,06,20,13,42,19.30
2015,06,20,13,43,19.20
2015,06,20,13,44,19.20
2015,06,20,13,45,19.20
2015,06,20,13,46,19.20
2015,06,20,13,47,19.10
2015,06,20,13,48,19.10
2015,06,20,13,49,19.10
2015,06,20,13,50,19.00
2015,06,20,13,51,18.90
2015,06,20,13,52,18.90
2015,06,20,13,53,18.90
2015,06,20,13,54,19.10
2015,06,20,13,55,19.10
2015,06,20,13,56,19.10
2015,06,20,13,57,18.90
2015,06,20,13,58,18.70
2015,06,20,13,59,18.70
2015,06,20,14,00,18.60
2015,06,20,14,01,18.70
2015,06,20,14,02,18.70
2015,06,20,14,03,18.80
2015,06,20,14,04,18.80
2015,06,20,14,05,18.80
2015,06,20,14,06,18.80
2015,06,20,14,07,18.70
2015,06,20,14,08,18.50
2015,06,20,14,09,18.40
2015,06,20,14,10,18.20
2015,06,20,14,11,18.10
2015,06,20,14,12,18.00
2015,06,20,14,13,17.90
2015,06,20,14,14,17.90
2015,06,20,14,15,17.80
2015,06,20,14,16,17.70
2015,06,20,14,17,17.70
2015,06,20,14,18,17.70
2015,06,20,14,19,17.80
2015,06,20,14,20,17.70
2015,06,20,14,21,17.70
2015,06,20,14,22,17.80
2015,06,20,14,23,17.90
2015,06,20,14,24,17.90
2015,06,20,14,25,18.00
2015,06,20,14,26,18.10
2015,06,20,14,27,18.20
2015,06,20,14,28,18.20
2015,06,20,14,29,18.20
2015,06,20,14,30,18.20
2015,06,20,14,31,18.20
2015,06,20,14,32,18.20
2015,06,20,14,33,18.20
2015,06,20,14,34,18.20
2015,06,20,14,35,18.30
2015,06,20,14,36,18.40
2015,06,20,14,37,18.50
2015,06,20,14,38,18.70
2015,06,20,14,39,18.90
2015,06,20,14,40,19.00
2015,06,20,14,41,19.20
2015,06,20,14,42,19.20
2015,06,20,14,43,19.30
2015,06,20,14,44,19.30
2015,06,20,14,45,19.30
2015,06,20,14,46,19.40
2015,06,20,14,47,19.40
2015,06,20,14,48,19.30
2015,06,20,14,49,19.20
2015,06,20,14,50,19.00
2015,06,20,14,51,18.90
2015,06,20,14,52,18.80
2015,06,20,14,53,18.70
2015,06,20,14,54,18.70
2015,06,20,14,55,18.70
2015,06,20,14,56,18.70
2015,06,20,14,57,18.80
2015,06,20,14,58,18.80
2015,06,20,14,59,18.80
2015,06,20,15,00,18.80
2015,06,20,15,01,18.60
2015,06,20,15,02,18.50
2015,06,20,15,03,18.30
2015,06,20,15,04,18.20
2015,06,20,15,05,18.20
2015,06,20,15,06,18.20
2015,06,20,15,07,18.20
2015,06,20,15,08,18.10
2015,06,20,15,09,18.00
2015,06,20,15,10,17.90
2015,06,20,15,11,17.90
2015,06,20,15,12,17.90
2015,06,20,15,13,17.90
2015,06,20,15,14,17.90
2015,06,20,15,15,17.90
2015,06,20,15,16,17.80
2015,06,20,15,17,17.80
2015,06,20,15,18,17.70
2015,06,20,15,19,17.60
2015,06,20,15,20,17.50
2015,06,20,15,21,17.50
2015,06,20,15,22,17.50
2015,06,20,15,23,17.70
2015,06,20,15,24,17.80
2015,06,20,15,25,17.90
2015,06,20,15,26,17.90
2015,06,20,15,27,18.00
2015,06,20,15,28,18.10
2015,06,20,15,29,18.10
2015,06,20,15,30,18.20
2015,06,20,15,31,18.30
2015,06,20,15,32,18.40
2015,06,20,15,33,18.40
2015,06,20,15,34,18.40
2015,06,20,15,35,18.30
2015,06,20,15,36,18.20
2015,06,20,15,37,18.20
2015,06,20,15,38,18.20
2015,06,20,15,39,18.20
2015,06,20,15,40,18.20
2015,06,20,15,41,18.20
2015,06,20,15,42,18.30
2015,06,20,15,43,18.30
2015,06,20,15,44,18.30
2015,06,20,15,45,18.30
2015,06,20,15,46,18.20
2015,06,20,15,47,18.20
2015,06,20,15,48,18.20
2015,06,20,15,49,18.20
2015,06,20,15,50,18.20
2015,06,20,15,51,18.20
2015,06,20,15,52,18.20
2015,06,20,15,53,18.20
2015,06,20,15,54,18.30
2015,06,20,15,55,18.40
2015,06,20,15,56,18.50
2015,06,20,15,57,18.60
2015,06,20,15,58,18.70
2015,06,20,15,59,18.90
2015,06,20,16,00,18.90
2015,06,20,16,01,18.90
2015,06,20,16,02,18.80
2015,06,20,16,03,18.80
2015,06,20,16,04,18.80
2015,06,20,16,05,18.80
2015,06,20,16,06,18.70
2015,06,20,16,07,18.50
2015,06,20,16,08,18.50
2015,06,20,16,09,18.40
2015,06,20,16,10,18.40
2015,06,20,16,11,18.30
2015,06,20,16,12,18.20
2015,06,20,16,13,18.20
2015,06,20,16,14,18.10
2015,06,20,16,15,18.10
2015,06,20,16,16,18.10
2015,06,20,16,17,18.10
2015,06,20,16,18,18.20
2015,06,20,16,19,18.20
2015,06,20,16,20,18.20
2015,06,20,16,21,18.30
2015,06,20,16,22,18.30
2015,06,20,16,23,18.40
2015,06,20,16,24,18.40
2015,06,20,16,25,18.50
2015,06,20,16,26,18.50
2015,06,20,16,27,18.50
2015,06,20,16,28,18.50
2015,06,20,16,29,18.50
2015,06,20,16,30,18.50
2015,06,20,16,31,18.50
2015,06,20,16,32,18.60
2015,06,20,16,33,18.50
2015,06,20,16,34,18.50
2015,06,20,16,35,18.50
2015,06,20,16,36,18.20
2015,06,20,16,37,18.10
2015,06,20,16,38,17.90
2015,06,20,16,39,17.70
2015,06,20,16,40,17.70
2015,06,20,16,41,17.60
2015,06,20,16,42,17.50
2015,06,20,16,43,17.50
2015,06,20,16,44,17.50
2015,06,20,16,45,17.40
2015,06,20,16,46,17.30
2015,06,20,16,47,17.20
2015,06,20,16,48,17.20
2015,06,20,16,49,17.10
2015,06,20,16,50,16.90
2015,06,20,16,51,16.80
2015,06,20,16,52,16.70
2015,06,20,16,53,16.70
2015,06,20,16,54,16.50
2015,06,20,16,55,16.40
2015,06,20,16,56,16.40
2015,06,20,16,57,16.20
2015,06,20,16,58,16.10
2015,06,20,16,59,16.10
2015,06,20,17,00,16.10
2015,06,20,17,01,16.10
2015,06,20,17,02,16.00
2015,06,20,17,03,15.80
2015,06,20,17,04,15.70
2015,06,20,17,05,15.70
2015,06,20,17,06,15.70
2015,06,20,17,07,15.70
2015,06,20,17,08,15.80
2015,06,20,17,09,15.80
2015,06,20,17,10,15.80
2015,06,20,17,11,15.80
2015,06,20,17,12,15.80
2015,06,20,17,13,15.80
2015,06,20,17,14,15.80
2015,06,20,17,15,15.90
2015,06,20,17,16,15.80
2015,06,20,17,17,15.70
2015,06,20,17,18,15.50
2015,06,20,17,19,15.50
2015,06,20,17,20,15.50
2015,06,20,17,21,15.50
2015,06,20,17,22,15.50
2015,06,20,17,23,15.50
2015,06,20,17,24,15.60
2015,06,20,17,25,15.60
2015,06,20,17,26,15.60
2015,06,20,17,27,15.60
2015,06,20,17,28,15.70
2015,06,20,17,29,15.80
2015,06,20,17,30,15.70
2015,06,20,17,31,15.70
2015,06,20,17,32,15.70
2015,06,20,17,33,15.70
2015,06,20,17,34,15.70
2015,06,20,17,35,15.60
2015,06,20,17,36,15.60
2015,06,20,17,37,15.60
2015,06,20,17,38,15.50
2015,06,20,17,39,15.40
2015,06,20,17,40,15.40
2015,06,20,17,41,15.40
2015,06,20,17,42,15.30
2015,06,20,17,43,15.30
2015,06,20,17,44,15.30
2015,06,20,17,45,15.30
2015,06,20,17,46,15.30
2015,06,20,17,47,15.30
2015,06,20,17,48,15.30
2015,06,20,17,49,15.30
2015,06,20,17,50,15.20
2015,06,20,17,51,15.20
2015,06,20,17,52,15.20
2015,06,20,17,53,15.20
2015,06,20,17,54,15.20
2015,06,20,17,55,15.30
2015,06,20,17,56,15.30
2015,06,20,17,57,15.40
2015,06,20,17,58,15.50
2015,06,20,17,59,15.50
2015,06,20,18,00,15.40
2015,06,20,18,01,15.40
2015,06,20,18,02,15.30
2015,06,20,18,03,15.30
2015,06,20,18,04,15.20
2015,06,20,18,05,15.10
2015,06,20,18,06,15.10
2015,06,20,18,07,15.20
2015,06,20,18,08,15.20
2015,06,20,18,09,15.20
2015,06,20,18,10,15.20
2015,06,20,18,11,15.20
2015,06,20,18,12,15.20
2015,06,20,18,13,15.30
2015,06,20,18,14,15.30
2015,06,20,18,15,15.30
2015,06,20,18,16,15.40
2015,06,20,18,17,15.50
2015,06,20,18,18,15.50
2015,06,20,18,19,15.60
2015,06,20,18,20,15.60
2015,06,20,18,21,15.60
2015,06,20,18,22,15.60
2015,06,20,18,23,15.60
2015,06,20,18,24,15.70
2015,06,20,18,25,15.80
2015,06,20,18,26,15.80
2015,06,20,18,27,15.80
2015,06,20,18,28,15.80
2015,06,20,18,29,15.80
2015,06,20,18,30,15.80
2015,06,20,18,31,15.70
2015,06,20,18,32,15.70
2015,06,20,18,33,15.70
2015,06,20,18,34,15.80
2015,06,20,18,35,15.80
2015,06,20,18,36,15.80
2015,06,20,18,37,15.80
2015,06,20,18,38,15.80
2015,06,20,18,39,15.90
2015,06,20,18,40,15.90
2015,06,20,18,41,15.90
2015,06,20,18,42,15.90
2015,06,20,18,43,15.90
2015,06,20,18,44,15.90
2015,06,20,18,45,15.90
2015,06,20,18,46,15.80
2015,06,20,18,47,15.80
2015,06,20,18,48,15.80
2015,06,20,18,49,15.90
2015,06,20,18,50,15.90
2015,06,20,18,51,16.10
2015,06,20,18,52,16.10
2015,06,20,18,53,16.10
2015,06,20,18,54,16.10
2015,06,20,18,55,16.10
2015,06,20,18,56,16.10
2015,06,20,18,57,16.10
2015,06,20,18,58,16.10
2015,06,20,18,59,16.10
2015,06,20,19,00,16.20
2015,06,20,19,01,16.20
2015,06,20,19,02,16.30
2015,06,20,19,03,16.30
2015,06,20,19,04,16.40
2015,06,20,19,05,16.50
2015,06,20,19,06,16.70
2015,06,20,19,07,16.70
2015,06,20,19,08,16.80
2015,06,20,19,09,16.90
2015,06,20,19,10,16.90
2015,06,20,19,11,16.90
2015,06,20,19,12,17.00
2015,06,20,19,13,17.10
2015,06,20,19,14,17.10
2015,06,20,19,15,17.30
2015,06,20,19,16,17.30
2015,06,20,19,17,17.40
2015,06,20,19,18,17.50
2015,06,20,19,19,17.50
2015,06,20,19,20,17.60
2015,06,20,19,21,17.70
2015,06,20,19,22,17.80
2015,06,20,19,23,17.90
2015,06,20,19,24,18.00
2015,06,20,19,25,18.10
2015,06,20,19,26,18.20
2015,06,20,19,27,18.30
2015,06,20,19,28,18.40
2015,06,20,19,29,18.40
2015,06,20,19,30,18.40
2015,06,20,19,31,18.40
2015,06,20,19,32,18.40
2015,06,20,19,33,18.50
2015,06,20,19,34,18.50
2015,06,20,19,35,18.50
2015,06,20,19,36,18.50
2015,06,20,19,37,18.50
2015,06,20,19,38,18.50
2015,06,20,19,39,18.50
2015,06,20,19,40,18.50
2015,06,20,19,41,18.50
2015,06,20,19,42,18.50
2015,06,20,19,43,18.50
2015,06,20,19,44,18.50
2015,06,20,19,45,18.50
2015,06,20,19,46,18.50
2015,06,20,19,47,18.50
2015,06,20,19,48,18.50
2015,06,20,19,49,18.50
2015,06,20,19,50,18.50
2015,06,20,19,51,18.50
2015,06,20,19,52,18.50
2015,06,20,19,53,18.60
2015,06,20,19,54,18.60
2015,06,20,19,55,18.70
2015,06,20,19,56,18.70
2015,06,20,19,57,18.70
2015,06,20,19,58,18.70
2015,06,20,19,59,18.80
2015,06,20,20,00,18.80
2015,06,20,20,01,18.80
2015,06,20,20,02,18.90
2015,06,20,20,03,18.90
2015,06,20,20,04,18.90
2015,06,20,20,05,18.90
2015,06,20,20,06,18.90
2015,06,20,20,07,18.90
2015,06,20,20,08,19.00
2015,06,20,20,09,19.00
2015,06,20,20,10,18.90
2015,06,20,20,11,19.00
2015,06,20,20,12,19.10
2015,06,20,20,13,19.10
2015,06,20,20,14,19.10
2015,06,20,20,15,19.10
2015,06,20,20,16,19.10
2015,06,20,20,17,19.10
2015,06,20,20,18,19.10
2015,06,20,20,19,19.00
2015,06,20,20,20,18.90
2015,06,20,20,21,18.90
2015,06,20,20,22,18.90
2015,06,20,20,23,18.90
2015,06,20,20,24,18.90
2015,06,20,20,25,18.90
2015,06,20,20,26,18.90
2015,06,20,20,27,18.90
2015,06,20,20,28,18.90
2015,06,20,20,29,18.90
2015,06,20,20,30,18.90
2015,06,20,20,31,18.90
2015,06,20,20,32,18.90
2015,06,20,20,33,18.90
2015,06,20,20,34,18.90
2015,06,20,20,35,18.90
2015,06,20,20,36,18.90
2015,06,20,20,37,18.90
2015,06,20,20,38,18.90
2015,06,20,20,39,18.90
2015,06,20,20,40,18.90
2015,06,20,20,41,18.90
2015,06,20,20,42,18.80
2015,06,20,20,43,18.80
2015,06,20,20,44,18.70
2015,06,20,20,45,18.70
2015,06,20,20,46,18.70
2015,06,20,20,47,18.70
2015,06,20,20,48,18.70
2015,06,20,20,49,18.60
2015,06,20,20,50,18.70
2015,06,20,20,51,18.70
2015,06,20,20,52,18.60
2015,06,20,20,53,18.60
2015,06,20,20,54,18.60
2015,06,20,20,55,18.60
2015,06,20,20,56,18.50
2015,06,20,20,57,18.50
2015,06,20,20,58,18.40
2015,06,20,20,59,18.30
2015,06,20,21,00,18.30
2015,06,20,21,01,18.30
2015,06,20,21,02,18.30
2015,06,20,21,03,18.30
2015,06,20,21,04,18.30
2015,06,20,21,05,18.30
2015,06,20,21,06,18.30
2015,06,20,21,07,18.30
2015,06,20,21,08,18.30
2015,06,20,21,09,18.30
